This demonstration page uses our WeatherBlox Daily Observations layout. Learn more.

Left ArrowRight Arrow

36.19886, -115.1175

Hourly Observations for February 11, 2022

Temp ( °F °C ) Dew Point ( °F °C ) Humidity (%) Winds ( mph kmh ) Pressure ( in mb ) Visibility ( mi km ) Precip ( " mm )
12:53 am 00:53 Clear 61 16.1 26 -3.3 26 26 NW 9 15 30.14 1021 10 16 0.00 0.00
1:53 am 01:53 Clear 63 17.2 27 -2.8 26 26 N 12 19 30.13 1020 10 16 0.00 0.00
2:53 am 02:53 Clear 59 15 27 -2.8 29 29 NNW 12 19 30.11 1020 10 16 0.00 0.00
3:53 am 03:53 Clear 60 15.6 27 -2.8 28 28 NNW 10 17 30.11 1020 10 16 0.00 0.00
4:53 am 04:53 Clear 56 13.3 27 -2.8 33 33 WNW 15 24 30.13 1020 10 16 0.00 0.00
5:53 am 05:53 Clear 56 13.3 27 -2.8 33 33 NW 13 20 30.14 1021 10 16 0.00 0.00
6:53 am 06:53 Sunny 55 12.8 28 -2.2 35 35 W 7 11 30.16 1021 10 16 0.00 0.00
7:53 am 07:53 Sunny 59 15 28 -2.2 31 31 WNW 8 13 30.17 1022 10 16 0.00 0.00
8:53 am 08:53 Sunny 65 18.3 28 -2.2 25 25 NNW 9 15 30.16 1022 10 16 0.00 0.00
9:53 am 09:53 Sunny 68 20 28 -2.2 22 22 NNE 8 13 30.17 1022 10 16 0.00 0.00
10:53 am 10:53 Sunny 72 22.2 28 -2.2 19 19 N 12 19 30.16 1021 10 16 0.00 0.00
11:53 am 11:53 Sunny 75 23.9 24 -4.4 15 15 N 10 17 30.13 1020 10 16 0.00 0.00
12:53 pm 12:53 Sunny 77 25 21 -6.1 12 12 N 6 9 30.10 1019 10 16 0.00 0.00
1:53 pm 13:53 Sunny 78 25.6 19 -7.2 11 11 NNW 5 7 30.08 1019 10 16 0.00 0.00
2:53 pm 14:53 Sunny 80 26.7 16 -8.9 9 9 Calm 30.07 1018 10 16 0.00 0.00
3:53 pm 15:53 Sunny 80 26.7 11 -11.7 7 7 NW 15 24 30.06 1018 10 16 0.00 0.00
4:53 pm 16:53 Sunny 76 24.4 16 -8.9 10 10 E 8 13 30.07 1018 10 16 0.00 0.00
5:53 pm 17:53 Clear 74 23.3 17 -8.3 11 11 VRB 3 6 30.09 1019 10 16 0.00 0.00
6:53 pm 18:53 Clear 71 21.7 18 -7.8 13 13 NE 7 11 30.13 1020 10 16 0.00 0.00
7:53 pm 19:53 Clear 66 18.9 19 -7.2 16 16 NW 6 9 30.15 1021 10 16 0.00 0.00
8:53 pm 20:53 Clear 65 18.3 20 -6.7 18 18 Calm 30.16 1022 10 16 0.00 0.00
9:53 pm 21:53 Clear 62 16.7 20 -6.7 20 20 N 7 11 30.19 1022 10 16 0.00 0.00
10:53 pm 22:53 Clear 60 15.6 18 -7.8 19 19 N 5 7 30.21 1023 10 16 0.00 0.00
11:53 pm 23:53 Clear 59 15 17 -8.3 19 19 NNW 5 7 30.22 1023 10 16 0.00 0.00

Powered by AerisWeather